Regional Weather Roundup
Issued by NWS

Home | Current Version | Previous Version | Graphics & Text | Print | Product List | Glossary On
Versions: 1 2 3 4 5 6 7 8 9 10 11 12 13 14 15 16 17 18 19 20 21 22 23 24 25 26 27 28 29 30 31 32 33 34 35 36 37 38 39 40 41 42 43 44 45 46 47 48 49 50
000
ASUS43 KDMX 291307
RWRIA

WEATHER ROUNDUP FOR IOWA
NATIONAL WEATHER SERVICE DES MOINES IA
800 AM CDT FRI MAY 29 2015

NOTE: "FAIR" INDICATES FEW OR NO CLOUDS BELOW 12,000 FEET WITH NO
SIGNIFICANT WEATHER AND/OR OBSTRUCTIONS TO VISIBILITY.

* - THESE STATIONS ARE NOT NWS STATIONS...THUS NOT UNDER NWS
QUALITY CONTROL.  THEY ALSO DO NOT REPORT WEATHER SUCH
AS PRECIPITATION OR FOG.

IAZ001>003-012>014-020>022-031>034-043>046-291400-
   NORTHWEST IOWA

CITY           SKY/WX    TMP DP  RH WIND       PRES   REMARKS
CARROLL *      PTSUNNY   66  64  94 SW13G21   29.91S
CHEROKEE *     CLOUDY    64  64 100 S6        29.90R FOG
DENISON *      CLOUDY    66  66 100 S8G20     29.89S FOG
LE MARS *      MOSUNNY   66  64  94 S14       29.89S
ORANGE CITY *  PTSUNNY   64  61  88 S10       29.88R
SHELDON *      SUNNY     64  63  94 S13       29.88R
SIOUX CITY     CLOUDY    67  62  84 S12       29.89S
SPENCER        CLOUDY    66  64  93 S12       29.91R
STORM LAKE *   CLOUDY    64  64 100 S14       29.92R FOG
$$

IAZ055>058-069>071-079>083-090>094-291400-
   SOUTHWEST IOWA

CITY           SKY/WX    TMP DP  RH WIND       PRES   REMARKS
ATLANTIC *     CLOUDY    64  64 100 S9        29.94R
AUDUBON *      MOSUNNY   64  63  94 S8        29.94R
CLARINDA *     CLOUDY    66  66 100 S7        29.96S
COUNCIL BLFS * LGT RAIN  64  64 100 S9        29.93R
CRESTON *      CLOUDY    63  63 100 S10       29.96R
HARLAN  *      CLOUDY    64  64 100 S17       29.96R FOG
LAMONI         CLOUDY    67  63  87 S9        29.97R
RED OAK *      CLOUDY    66  64  94 S7        29.95R
SHENANDOAH *   CLOUDY    66  64  94 SW8       29.95S
$$

IAZ047>049-059>061-072>074-084-291400-
   CENTRAL IOWA

CITY           SKY/WX    TMP DP  RH WIND       PRES   REMARKS
AMES           PTSUNNY   66  63  90 S6        29.93R
ANKENY *       SUNNY     66  64  94 S8        29.94R
CHARITON *     MOSUNNY   64  64 100 S7        29.95S
DES MOINES     PTSUNNY   66  62  87 S8        29.94R
GRINNELL*      CLOUDY    64  63  94 SE5       29.96S
KNOXVILLE *    SUNNY     66  64  94 S8        29.94R
MARSHALLTOWN   PTSUNNY   66  63  90 S9        29.94R
PELLA *        PTSUNNY   66  66 100 SE3       29.96S
PERRY *          N/A     64  63  94 S9        29.93R
$$

IAZ004>006-015-016-023>025-035-036-291400-
   NORTH CENTRAL IOWA

CITY           SKY/WX    TMP DP  RH WIND       PRES   REMARKS
ALGONA *       CLOUDY    66  66 100 S9        29.93R
CLARION *      PTSUNNY   66  63  88 S13       29.92R
ESTHERVILLE    CLOUDY    65  63  93 S13       29.89S
FORT DODGE *   PTSUNNY   64  61  88 S7        29.93R
MASON CITY     CLOUDY    67  63  87 S9        29.93F
FOREST CITY *    N/A     64  64 100 SE5       29.92R
IOWA FALLS *     N/A     66  63  88 S8        29.94S
$$

IAZ007>011-017>019-026>030-037>042-050>054-066-291400-
   NORTHEAST IOWA

CITY           SKY/WX    TMP DP  RH WIND       PRES   REMARKS
CEDAR RAPIDS   PTSUNNY   67  64  90 S7        29.96R
CHARLES CITY * PTSUNNY   66  66 100 S9        29.95S
CLINTON *      PTSUNNY   70  64  83 S8        30.00F
DECORAH *      SUNNY     66  63  88 VRB7      29.95S
DUBUQUE        CLOUDY    65  62  90 SE10      29.98R
MONTICELLO *   MOSUNNY   66  66 100 SE9       29.97R
OELWEIN *      MOSUNNY   66  64  94 S10       29.97S
WATERLOO       PTSUNNY   67  63  87 S9        29.93F
$$

IAZ064-065-067-068-078-291400-
   EAST CENTRAL IOWA

CITY           SKY/WX    TMP DP  RH WIND       PRES   REMARKS
DAVENPORT      CLOUDY    70  64  81 S13       29.98S
IOWA CITY      CLOUDY    68  64  87 SE8       29.98R
MT. PLEASANT * PTSUNNY   68  66  94 S8        29.97R
MUSCATINE *    CLOUDY    70  66  88 S6        29.97S
QUAD CITIES    PTSUNNY   72  65  78 S7        29.97S
$$

IAZ062-063-075>077-085>089-095>099-291400-
   SOUTHEAST IOWA

CITY           SKY/WX    TMP DP  RH WIND       PRES   REMARKS
BURLINGTON     CLOUDY    69  66  90 S7        29.97R
FAIRFIELD *    CLOUDY    66  64  94 S7        29.97R
FORT MADISON * CLOUDY    68  66  94 S7        29.98R
KEOKUK *       CLOUDY    68  66  94 SW10      29.97R
OSKALOOSA *    CLOUDY    66  64  94 S6        29.97S
CENTERVILLE *  SUNNY     66  66 100 S6        29.98R
OTTUMWA        CLOUDY    66  65  96 S7        29.94F
WASHINGTON *   CLOUDY    68  66  94 S7        29.99R
$$

ABBREVIATIONS USED IN REMARKS
   TC - TEMPERATURES IN CELSIUS
  WCI - WIND CHILL INDEX
   HX - HEAT INDEX
  VSB - VISIBILITY
$$



USA.gov is the U.S. government's official web portal to all federal, state and local government web resources and services.